TimeMST,TemperatureF,Dew PointF,Humidity,Sea Level PressureIn,VisibilityMPH,Wind Direction,Wind SpeedMPH,Gust SpeedMPH,PrecipitationIn,Events,Conditions,WindDirDegrees,DateUTC
12:53 AM,32.0,24.1,73,30.26,10.0,SSW,12.7,-,N/A,,Clear,200,2012-11-15 07:53:00
1:53 AM,30.0,23.0,75,30.27,10.0,SSW,10.4,-,N/A,,Clear,210,2012-11-15 08:53:00
2:53 AM,28.9,21.9,75,30.28,10.0,SSW,11.5,-,N/A,,Clear,210,2012-11-15 09:53:00
3:53 AM,32.0,23.0,69,30.27,10.0,SW,15.0,-,N/A,,Clear,220,2012-11-15 10:53:00
4:53 AM,32.0,21.9,66,30.27,10.0,SW,11.5,-,N/A,,Clear,220,2012-11-15 11:53:00
5:53 AM,30.0,19.9,66,30.29,10.0,SSW,12.7,-,N/A,,Clear,210,2012-11-15 12:53:00
6:53 AM,30.0,19.9,66,30.30,10.0,SSW,11.5,-,N/A,,Clear,200,2012-11-15 13:53:00
7:53 AM,30.0,19.9,66,30.29,10.0,SSW,10.4,-,N/A,,Clear,200,2012-11-15 14:53:00
8:53 AM,34.0,23.0,64,30.28,10.0,SSW,13.8,-,N/A,,Clear,200,2012-11-15 15:53:00
9:53 AM,37.9,26.1,62,30.27,10.0,SSW,12.7,-,N/A,,Clear,210,2012-11-15 16:53:00
10:53 AM,41.0,26.1,55,30.26,10.0,SW,16.1,-,N/A,,Clear,220,2012-11-15 17:53:00
11:53 AM,42.1,27.0,55,30.22,10.0,SW,12.7,-,N/A,,Clear,220,2012-11-15 18:53:00
12:53 PM,43.0,26.1,51,30.19,10.0,SW,16.1,-,N/A,,Clear,220,2012-11-15 19:53:00
1:53 PM,44.1,26.1,49,30.17,10.0,SSW,13.8,-,N/A,,Clear,210,2012-11-15 20:53:00
2:53 PM,43.0,27.0,53,30.16,10.0,SSW,15.0,-,N/A,,Clear,210,2012-11-15 21:53:00
3:53 PM,41.0,27.0,57,30.14,10.0,SSW,15.0,-,N/A,,Clear,200,2012-11-15 22:53:00
4:53 PM,39.9,25.0,55,30.14,10.0,South,11.5,-,N/A,,Clear,190,2012-11-15 23:53:00
5:53 PM,37.9,25.0,60,30.14,10.0,SSW,23.0,-,N/A,,Clear,200,2012-11-16 00:53:00
6:53 PM,37.0,24.1,59,30.13,10.0,SSW,15.0,-,N/A,,Clear,200,2012-11-16 01:53:00
7:53 PM,34.0,23.0,64,30.12,10.0,SSW,12.7,-,N/A,,Clear,200,2012-11-16 02:53:00
8:53 PM,36.0,21.9,57,30.09,10.0,South,15.0,-,N/A,,Clear,190,2012-11-16 03:53:00
9:53 PM,37.9,21.9,53,30.05,10.0,South,12.7,-,N/A,,Clear,190,2012-11-16 04:53:00
10:53 PM,39.0,23.0,53,30.02,10.0,SSW,15.0,-,N/A,,Clear,210,2012-11-16 05:53:00
11:53 PM,36.0,21.9,57,30.02,10.0,SSW,6.9,-,N/A,,Clear,210,2012-11-16 06:53:00